Miscellaneous Local Product
Issued by NWS North Platte, NE

Home | Current Version | Previous Version | Text Only | Print | Product List | Glossary On
Versions: 1 2 3 4 5 6 7 8 9 10 11 12 13 14 15 16 17 18 19 20 21 22 23 24 25 26 27 28 29 30 31 32 33 34 35 36 37 38 39 40 41 42 43 44 45 46 47 48 49 50
000
AXUS43 KLBF 251210
MISLBF


WESTERN AND NORTH CENTRAL NEBRASKA HOURLY WEATHER ROUNDUP
NATIONAL WEATHER SERVICE NORTH PLATTE NE
700 AM CDT MON SEP 25 2017

NOTE: "FAIR" INDICATES FEW OR NO CLOUDS BELOW 12,000 FEET WITH NO
SIGNIFICANT WEATHER AND/OR OBSTRUCTIONS TO VISIBILITY.

NOTE: STATIONS NOT REPORTING VARIABLES SUCH AS SKY/WEATHER OR
PRESSURE ARE PROVIDED BY RAWS AND APRS NETWORKS AND ARE NOT UNDER
NATIONAL WEATHER SERVICE QUALITY CONTROL.

...OBSERVATIONS IN AND NEAR THE EASTERN PANHANDLE OF NEBRASKA...

CITY           SKY/WX    TMP DP  RH WIND       PRES   REMARKS
PINE RIDGE     CLOUDY    44  43  96 NE6       30.12R
GORDON         CLOUDY    43  42  95 NE7       30.09F
CHADRON        CLOUDY    42  41  96 N5        30.13R FOG
ALLIANCE       CLOUDY    43  41  93 N9        30.08F
SIDNEY         CLOUDY    43  42  97 N13       30.09R
CRESCENT LAKE    N/A     44  44  99 N9          N/A
$$

...OBSERVATIONS IN NORTHERN NEBRASKA AND FAR SOUTHERN SOUTH DAKOTA...

CITY           SKY/WX    TMP DP  RH WIND       PRES   REMARKS
WINNER         LGT RAIN  50  48  93 N13       30.11S FOG
VALENTINE      CLOUDY    47  45  93 N12       30.09S
THEDFORD       CLOUDY    47  46  94 N10       30.07S
AINSWORTH      CLOUDY    47  47 100 N14       30.06F
O`NEILL        DRIZZLE   49  49 100 N9        30.04R
ORD            LGT RAIN  50  48  93 N10       30.00S FOG
BROKEN BOW     CLOUDY    50  49  96 N14G23    30.00F
HALSEY           N/A     46  46 100 N6G14       N/A
BUTTE            N/A     47  46  96 NW12G20     N/A
CHAMBERS         N/A     50  49  97 CALM        N/A
EWING            N/A     51  50  97 NE5         N/A
$$

...OBSERVATIONS IN SOUTHWEST NEBRASKA AND FAR NORTHEAST COLORADO...

CITY           SKY/WX    TMP DP  RH WIND       PRES   REMARKS
WRAY           CLOUDY    48  48 100 N13       30.05R
HOLYOKE        CLOUDY    46  45  93 N15       30.06R
IMPERIAL       CLOUDY    48  46  93 N14       30.04R
OGALLALA       CLOUDY    49  46  90 N14       30.06S
NORTH PLATTE   CLOUDY    49  47  93 NW7       30.07R
MCCOOK         CLOUDY    51  50  96 N12       30.01R
LEXINGTON      CLOUDY    51  49  93 N9        30.02R
STAPLETON        N/A     46  45  97 CALM        N/A
GOTHENBURG       N/A     50  47  88 N7          N/A
CALLAWAY         N/A     50  49  97 NE12        N/A
$$

...OBSERVATIONS IN CENTRAL LINCOLN COUNTY AREA...

CITY           SKY/WX    TMP DP  RH WIND       PRES   REMARKS
N.P. AIRPORT   CLOUDY    49  47  93 NW7       30.07R
N.P. DOWNTOWN    N/A     48  46  94 N3          N/A
N.P. SOUTHEAST   N/A     48  46  93 N5          N/A
N.P. HILLCREST   N/A     48  46  94 N12G20      N/A
$$

...SOME OBSERVATIONS FROM AROUND THE REGION...

CITY           SKY/WX    TMP DP  RH WIND       PRES   REMARKS
DENVER         CLOUDY    45  41  86 N8        30.10S
LIMON            N/A    N/A N/A N/A MISG        N/A
ASPEN          CLOUDY    25  19  78 SW7       30.10S WCI  17
LARAMIE        FOG       30  29  96 SW5       30.10S VSB 1/4 WCI  25
CASPER         LGT RAIN  35  34  96 CALM      30.11S
CHEYENNE       CLOUDY    38  37  97 NW3       30.12R FOG
SCOTTSBLUFF    CLOUDY    44  40  85 NE6       30.11F
GRAND ISLAND   CLOUDY    53  53 100 N10       29.99R
OMAHA          CLOUDY    63  59  87 NW12      29.96R
SIOUX FALLS    LGT RAIN  53  52  96 NE13      30.01F
PIERRE         CLOUDY    48  43  82 N6        30.13R
RAPID CITY     CLOUDY    45  43  93 N3        30.13
BISMARCK       CLOUDY    48  45  89 N3        30.16R
KANSAS CITY    PTCLDY    67  64  90 S7        29.94R
HILL CITY      CLOUDY    55  55 100 N12       29.97R
WICHITA        MOCLDY    69  66  90 S9        29.90R
DODGE CITY     TSTM      67  65  93 SE6       29.88S
OKLAHOMA CITY  CLOUDY    68  64  87 S5        29.92R
DALLAS         PTCLDY    72  68  87 SE3       29.89R
AMARILLO       CLOUDY    65  65 100 SE8       29.92S
$$




USA.gov is the U.S. government's official web portal to all federal, state and local government web resources and services.